TimePST,TemperatureF,Dew PointF,Humidity,Sea Level PressureIn,VisibilityMPH,Wind Direction,Wind SpeedMPH,Gust SpeedMPH,PrecipitationIn,Events,Conditions,WindDirDegrees,DateUTC
12:15 AM,30.2,28.4,93,30.16,3.0,SSW,4.6,-,N/A,,Overcast,210,2012-12-10 08:15:00
12:55 AM,30.2,28.4,93,30.16,3.0,South,4.6,-,N/A,,Overcast,190,2012-12-10 08:55:00
1:15 AM,30.2,28.4,93,30.16,4.0,South,5.8,-,N/A,,Overcast,190,2012-12-10 09:15:00
1:35 AM,30.2,28.4,93,30.16,2.5,SSW,3.5,-,N/A,,Overcast,210,2012-12-10 09:35:00
1:55 AM,30.2,28.4,93,30.16,4.0,SW,5.8,-,N/A,,Overcast,220,2012-12-10 09:55:00
2:15 AM,30.2,28.4,93,30.16,10.0,SSW,6.9,-,N/A,,Overcast,210,2012-12-10 10:15:00
2:35 AM,30.2,28.4,93,30.17,3.0,SSW,5.8,-,N/A,,Overcast,200,2012-12-10 10:35:00
2:55 AM,30.2,28.4,93,30.17,4.0,South,5.8,-,N/A,,Overcast,190,2012-12-10 10:55:00
3:15 AM,30.2,28.4,93,30.17,10.0,SSW,4.6,-,N/A,,Overcast,200,2012-12-10 11:15:00
3:35 AM,30.2,28.4,93,30.17,10.0,SSW,6.9,-,N/A,,Overcast,210,2012-12-10 11:35:00
3:55 AM,30.2,28.4,93,30.17,10.0,SSW,8.1,-,N/A,,Overcast,210,2012-12-10 11:55:00
4:15 AM,30.2,28.4,93,30.17,10.0,WSW,4.6,-,N/A,,Overcast,240,2012-12-10 12:15:00
4:35 AM,28.4,26.6,93,30.18,10.0,Calm,Calm,-,N/A,,Overcast,0,2012-12-10 12:35:00
4:55 AM,30.2,28.4,93,30.18,10.0,SW,4.6,-,N/A,,Overcast,230,2012-12-10 12:55:00
5:15 AM,30.2,28.4,93,30.18,10.0,SW,5.8,-,N/A,,Overcast,220,2012-12-10 13:15:00
5:35 AM,30.2,28.4,93,30.18,5.0,WSW,5.8,-,N/A,,Overcast,240,2012-12-10 13:35:00
5:55 AM,30.2,28.4,93,30.19,2.0,SW,6.9,-,N/A,,Overcast,230,2012-12-10 13:55:00
6:15 AM,28.4,28.4,100,30.19,5.0,SSW,6.9,-,N/A,,Overcast,200,2012-12-10 14:15:00
6:35 AM,30.2,28.4,93,30.20,5.0,SW,9.2,-,N/A,,Overcast,230,2012-12-10 14:35:00
6:55 AM,30.2,28.4,93,30.20,10.0,SW,8.1,-,N/A,,Overcast,230,2012-12-10 14:55:00
7:15 AM,30.2,26.6,86,30.20,10.0,SW,8.1,-,N/A,,Overcast,220,2012-12-10 15:15:00
7:35 AM,30.2,28.4,93,30.21,10.0,SSW,5.8,-,N/A,,Overcast,210,2012-12-10 15:35:00
8:35 AM,30.2,28.4,93,30.21,7.0,WSW,8.1,-,N/A,,Overcast,250,2012-12-10 16:35:00
8:55 AM,30.2,28.4,93,30.21,6.0,WSW,6.9,-,N/A,,Overcast,250,2012-12-10 16:55:00
9:15 AM,30.2,28.4,93,30.21,9.0,SW,6.9,-,N/A,,Overcast,230,2012-12-10 17:15:00
9:35 AM,30.2,28.4,93,30.21,5.0,WSW,4.6,-,N/A,,Overcast,250,2012-12-10 17:35:00
9:55 AM,30.2,28.4,93,30.21,9.0,West,6.9,-,N/A,,Overcast,260,2012-12-10 17:55:00
10:15 AM,30.2,28.4,93,30.21,1.5,West,6.9,-,N/A,,Overcast,270,2012-12-10 18:15:00
10:35 AM,30.2,28.4,93,30.21,2.0,West,5.8,-,N/A,,Overcast,270,2012-12-10 18:35:00
10:55 AM,30.2,28.4,93,30.20,1.8,WSW,6.9,-,N/A,,Overcast,250,2012-12-10 18:55:00
11:15 AM,30.2,28.4,93,30.20,2.5,WSW,9.2,-,N/A,,Overcast,250,2012-12-10 19:15:00
11:35 AM,30.2,28.4,93,30.20,1.8,West,6.9,-,N/A,,Overcast,260,2012-12-10 19:35:00
11:55 AM,30.2,28.4,93,30.20,3.0,West,5.8,-,N/A,,Overcast,270,2012-12-10 19:55:00
12:15 PM,30.2,28.4,93,30.19,9.0,WSW,3.5,-,N/A,,Overcast,240,2012-12-10 20:15:00
12:35 PM,30.2,28.4,93,30.18,9.0,WSW,6.9,-,N/A,,Overcast,240,2012-12-10 20:35:00
12:55 PM,30.2,30.2,100,30.18,10.0,WSW,5.8,-,N/A,,Overcast,250,2012-12-10 20:55:00
1:15 PM,30.2,28.4,93,30.18,9.0,WSW,4.6,-,N/A,,Overcast,250,2012-12-10 21:15:00
1:35 PM,30.2,28.4,93,30.17,9.0,WSW,5.8,-,N/A,,Overcast,240,2012-12-10 21:35:00
1:55 PM,30.2,28.4,93,30.17,10.0,SW,5.8,-,N/A,,Overcast,230,2012-12-10 21:55:00
2:15 PM,32.0,30.2,93,30.17,10.0,SSW,4.6,-,N/A,,Overcast,210,2012-12-10 22:15:00
2:35 PM,32.0,30.2,93,30.16,10.0,SSW,3.5,-,N/A,,Overcast,210,2012-12-10 22:35:00
2:55 PM,32.0,30.2,93,30.16,9.0,West,3.5,-,N/A,,Overcast,260,2012-12-10 22:55:00
3:15 PM,32.0,28.4,87,30.16,10.0,West,3.5,-,N/A,,Overcast,260,2012-12-10 23:15:00
3:35 PM,30.2,30.2,100,30.16,10.0,Calm,Calm,-,N/A,,Overcast,0,2012-12-10 23:35:00
3:55 PM,30.2,30.2,100,30.15,10.0,WSW,3.5,-,N/A,,Overcast,240,2012-12-10 23:55:00
4:15 PM,30.2,28.4,93,30.15,10.0,SSW,4.6,-,N/A,,Overcast,210,2012-12-11 00:15:00
4:35 PM,30.2,28.4,93,30.15,10.0,SW,4.6,-,N/A,,Overcast,220,2012-12-11 00:35:00
4:55 PM,30.2,30.2,100,30.14,10.0,SW,3.5,-,N/A,,Overcast,230,2012-12-11 00:55:00
5:15 PM,30.2,28.4,93,30.14,10.0,Calm,Calm,-,N/A,,Overcast,0,2012-12-11 01:15:00
5:35 PM,30.2,28.4,93,30.12,10.0,South,5.8,-,N/A,,Overcast,190,2012-12-11 01:35:00
5:55 PM,32.0,30.2,93,30.13,10.0,South,6.9,-,N/A,,Overcast,180,2012-12-11 01:55:00
6:15 PM,30.2,28.4,93,30.12,10.0,SSW,6.9,-,N/A,,Overcast,210,2012-12-11 02:15:00
6:55 PM,30.2,28.4,93,30.12,10.0,SW,6.9,-,N/A,,Overcast,230,2012-12-11 02:55:00
7:15 PM,30.2,28.4,93,30.11,10.0,WSW,6.9,-,N/A,,Overcast,240,2012-12-11 03:15:00
7:35 PM,32.0,30.2,93,30.11,10.0,WSW,5.8,-,N/A,,Overcast,250,2012-12-11 03:35:00
7:55 PM,32.0,28.4,87,30.10,10.0,WSW,5.8,-,N/A,,Overcast,250,2012-12-11 03:55:00
8:15 PM,30.2,28.4,93,30.09,10.0,Calm,Calm,-,N/A,,Overcast,0,2012-12-11 04:15:00
8:35 PM,28.4,26.6,93,30.08,10.0,Calm,Calm,-,N/A,,Overcast,0,2012-12-11 04:35:00
8:55 PM,28.4,26.6,93,30.07,9.0,Calm,Calm,-,N/A,,Overcast,0,2012-12-11 04:55:00
9:15 PM,30.2,26.6,86,30.07,10.0,Calm,Calm,-,N/A,,Overcast,0,2012-12-11 05:15:00
9:35 PM,30.2,30.2,100,30.07,10.0,Calm,Calm,-,N/A,,Overcast,0,2012-12-11 05:35:00
9:55 PM,30.2,30.2,100,30.05,10.0,Calm,Calm,-,N/A,,Overcast,0,2012-12-11 05:55:00
10:15 PM,30.2,28.4,93,30.04,10.0,Calm,Calm,-,N/A,,Overcast,0,2012-12-11 06:15:00
10:35 PM,30.2,30.2,100,30.04,10.0,Calm,Calm,-,N/A,,Overcast,0,2012-12-11 06:35:00
10:55 PM,32.0,30.2,93,30.03,10.0,West,3.5,-,N/A,,Overcast,260,2012-12-11 06:55:00
11:15 PM,32.0,30.2,93,30.02,10.0,Calm,Calm,-,N/A,,Overcast,0,2012-12-11 07:15:00
11:35 PM,30.2,30.2,100,30.02,10.0,WSW,3.5,-,N/A,,Overcast,250,2012-12-11 07:35:00
11:55 PM,30.2,30.2,100,30.00,7.0,Calm,Calm,-,N/A,,Overcast,0,2012-12-11 07:55:00